Regional Weather Roundup
Issued by NWS

Home | Current Version | Previous Version | Graphics & Text | Print | Product List | Glossary On
Versions: 1 2 3 4 5 6 7 8 9 10 11 12 13 14 15 16 17 18 19 20 21 22 23 24 25 26 27 28 29 30 31 32 33 34 35 36 37 38 39 40 41 42 43 44 45 46 47 48 49 50
897
ASUS43 KFSD 220410
RWRSD

WEATHER ROUNDUP FOR SOUTH DAKOTA
NATIONAL WEATHER SERVICE SIOUX FALLS SD
1100 PM CDT THU MAY 21 2015

NOTE: "FAIR" INDICATES FEW OR NO CLOUDS BELOW 12,000 FEET WITH NO
SIGNIFICANT WEATHER AND/OR OBSTRUCTIONS TO VISIBILITY.


SDZ001>005-009-010-012>017-220500-
NORTHWEST AND NORTH CENTRAL SOUTH DAKOTA

CITY           SKY/WX    TMP DP  RH WIND       PRES   REMARKS
BUFFALO          N/A     50  31  48 SE14      30.08R
FAITH            N/A     49  33  54 S10       30.15S
MOBRIDGE       CLEAR     57  40  52 CALM      30.11R
$$

SDZ012>016-024>037-041>051-057-063-072>074-220500-
SOUTHWEST AND SOUTH CENTRAL SOUTH DAKOTA

CITY           SKY/WX    TMP DP  RH WIND       PRES   REMARKS
RAPID CTY ARPT CLEAR     49  42  77 E3        30.13S
PIERRE         CLEAR     57  36  45 SW6       30.14R
CUSTER         CLOUDY    46  38  73 SE8       30.17R
ELLSWORTH AFB  CLEAR     51  43  73 S5        30.13R
PHILIP         CLEAR     48  36  63 E6        30.15R
PINE RIDGE     CLOUDY    52  44  74 SE5       30.15R
SPEARFISH      FAIR      46  37  71 SE6       30.13S
WINNER         FAIR      54  35  48 SE8       30.18R
$$

SDZ004>011-016>023-039-040-220500-
NORTHEAST SOUTH DAKOTA

CITY           SKY/WX    TMP DP  RH WIND       PRES   REMARKS
ABERDEEN       CLEAR     58  42  55 NE5       30.13R
WATERTOWN      CLEAR     56  33  42 CALM      30.14R
BROOKINGS      CLEAR     55  39  54 CALM      30.16R
SISSETON         N/A     51  38  60 W6        30.13R
$$

SDZ017-020-022-023-036>040-048>070-220500-
SOUTHEAST SOUTH DAKOTA

CITY           SKY/WX    TMP DP  RH WIND       PRES   REMARKS
SIOUX FALLS    PTCLDY    54  42  64 CALM      30.14R
HURON          PTCLDY    62  38  40 W5        30.14R
CHAMBERLAIN    CLEAR     51  38  61 S3        30.16S
MITCHELL       CLEAR     59  40  49 SW6       30.15R
YANKTON        CLEAR     59  37  44 W10       30.15R
$$

ABBREVIATIONS USED IN REMARKS
   TC - TEMPERATURE IN CELSIUS
  WCI - WIND CHILL INDEX
   HX - HEAT INDEX
  VSB - VISIBILITY




USA.gov is the U.S. government's official web portal to all federal, state and local government web resources and services.